Вернуться в каталог

STARLINK-35442

АктивенСвязьVLEO
NORAD 66319·PAYLOAD·🇺🇸 United States

Запущен Nov 6, 2025 с Cape Canaveral Space Force Station

Loading…

Ближайшие Пролёты (ближайшие 24 часа)

TLE

СвежийSource: CelesTrak SupGP

Эпоха: Sep 14, 2026, 23:23 UTC

1 66319C 25253A   26257.97479167 -.00004795  00000+0 -17363-3 0  2570
2 66319  42.9995 223.8567 0001204 262.4643 304.8008 15.27587529    17

Отслеживайте STARLINK-35442 в реальном времени с AllMySat

Download on the App Store